TJS-14

Last updated on Sun Jan 18 2026 00:02:50 GMT+0000 (Coordinated Universal Time)

1 62804U 25017A 26017.58756294 .00000133 00000+0 00000+0 0 9992 2 62804 1.1383 288.4705 0003072 33.5354 24.9064 1.00269090 3765
UTC large
Height (km)
Speed (km/s)
/
Latitude / Longitude
Inclination (degrees)
Orbital Period (minutes)
Azimuth
Elevation
Range (km)
Doppler Factor

Next 0 passes for location: London (51.5072 / 0.1276)

Sorry there are no passes over London.